Theta_e
325 324 324 324 324 323 323 325 324 324 324 323 325 323 322 323 325 326 325 326 328 327 326 327 327 327 326 326 329 330 330 331 331 332 332 331 331 331 331 331 332 333 332 332 333 333 332 330 327 327 329 331 331 330 330 330 327 326 327 327 327 327 327 327 328 328 329 329 329 328 328 328 329 329 329 329 329 328 327 326 325 327 326 326 326 325
324 323 323 325 324 323 323 323 324 324 323 324 324 323 323 324 324 325 325 326 327 326 326 326 326 327 327 327 329 330 330 331 331 331 331 332 332 332 332 332 332 333 333 333 333 332 332 332 329 328 329 330 332 330 329 329 328 327 328 328 328 328 328 328 326 327 328 328 327 328 328 327 328 328 327 327 327 327 325 323 324 325 323 325 326 326
322 321 321 324 324 323 323 324 324 323 323 324 325 325 324 323 324 324 324 325 326 325 325 325 326 327 327 327 329 330 330 330 330 331 331 331 331 332 332 332 332 333 333 333 333 332 332 333 332 331 329 329 330 331 330 330 330 330 331 330 328 327 327 327 325 326 327 327 327 327 326 326 328 327 325 325 326 326 326 325 325 326 324 324 325 327
318 318 320 323 325 324 323 324 324 323 324 323 325 324 323 322 323 323 324 325 325 325 325 324 325 327 327 327 328 329 330 329 329 330 330 330 331 332 332 331 331 332 332 332 333 334 333 333 332 332 331 330 331 333 332 332 332 332 333 331 327 327 327 326 326 326 327 326 326 326 326 327 328 329 328 328 327 326 327 327 327 328 327 326 326 327
317 317 320 323 324 323 323 324 324 323 322 324 325 323 322 323 324 323 325 325 324 324 325 326 326 327 327 327 327 327 329 329 329 329 330 330 330 331 331 332 332 332 332 332 333 333 333 333 333 333 333 333 333 333 333 334 333 333 333 330 328 328 327 327 327 327 327 327 328 328 329 330 329 330 330 329 329 327 327 327 327 328 327 327 327 326
317 317 320 322 323 323 324 323 323 323 321 322 324 323 323 324 323 324 324 324 326 325 323 326 326 327 327 326 326 327 327 328 329 330 330 330 330 330 331 331 331 331 331 332 332 332 333 333 333 334 333 333 333 333 332 332 331 331 331 330 329 329 328 328 327 326 326 326 327 327 329 330 330 329 328 327 327 326 326 327 327 327 327 327 327 327
316 318 321 322 322 323 323 322 323 325 322 321 322 323 324 324 323 323 323 324 325 324 323 324 326 326 327 326 327 326 327 328 329 330 331 331 331 330 331 331 331 331 331 331 332 332 333 333 333 333 333 333 332 331 331 330 329 329 329 328 327 326 325 324 323 322 322 323 323 323 324 326 326 325 324 324 324 324 324 325 325 325 326 326 327 327
317 318 321 322 322 323 322 322 323 324 321 320 322 325 324 324 323 324 324 323 322 323 324 324 325 325 325 326 328 327 328 328 328 330 331 331 331 330 330 331 331 331 330 331 331 332 333 333 334 333 333 331 329 328 328 326 326 325 325 324 322 321 320 320 319 318 318 318 318 318 318 318 318 316 315 315 315 315 316 316 317 318 318 320 321 322
318 319 320 321 321 321 322 322 323 324 323 323 323 325 324 324 325 325 324 322 323 323 322 323 323 323 324 326 328 327 328 329 329 329 331 331 331 331 330 331 331 331 331 331 331 332 333 333 334 333 332 329 326 325 324 323 323 322 320 320 319 318 318 317 317 316 315 316 316 315 314 313 312 313 313 313 312 311 311 311 310 310 310 311 311 313
317 318 320 321 320 320 321 323 323 323 324 324 324 324 325 325 325 324 324 322 322 323 321 321 322 323 324 325 326 327 328 329 329 329 331 331 331 331 331 331 331 331 331 331 331 332 332 331 331 330 329 326 323 322 321 320 321 321 318 318 317 317 316 314 314 314 314 315 315 314 313 313 314 314 314 313 313 313 314 313 312 312 311 311 310 309
317 317 318 319 318 321 322 322 324 324 325 324 324 324 324 324 324 324 324 322 321 322 321 321 322 322 324 324 325 327 328 328 328 328 330 330 330 330 331 331 331 330 330 330 329 329 329 328 328 327 326 324 321 320 319 319 320 320 317 316 316 315 314 313 313 314 314 314 314 314 313 313 315 315 315 315 315 316 317 317 316 316 315 315 313 310
318 317 318 318 318 321 323 323 323 325 325 325 324 323 323 323 323 323 322 321 321 322 322 321 321 322 324 325 326 328 328 328 329 328 328 329 329 330 330 330 330 329 328 327 327 327 327 327 326 326 325 323 321 320 319 320 320 319 317 315 315 314 313 314 314 314 314 314 314 313 313 313 313 314 316 317 317 317 318 317 317 317 317 316 315 314
318 318 319 319 319 322 322 322 323 324 324 324 323 323 321 321 321 321 321 320 320 322 322 321 322 323 324 326 327 328 328 329 331 329 329 329 329 330 330 329 328 328 327 326 327 328 327 327 327 326 325 323 322 321 320 320 320 319 317 316 315 315 314 314 314 314 314 314 313 313 312 313 314 314 316 317 317 317 317 316 316 316 315 315 314 314
316 318 319 319 321 322 322 321 321 321 323 323 323 321 320 320 319 318 319 319 320 322 321 321 323 323 324 327 327 328 329 331 331 330 329 329 328 329 328 327 328 327 327 327 327 327 327 327 327 326 326 324 323 322 320 320 320 319 318 317 316 316 315 315 315 315 314 313 312 311 311 312 314 314 315 315 315 315 315 315 315 314 314 314 312 312
314 316 318 319 321 322 322 322 321 322 323 324 324 322 321 320 318 317 318 318 319 321 321 322 324 323 325 328 327 328 331 331 330 329 329 328 328 328 327 327 327 327 326 326 326 327 327 327 327 326 326 324 322 320 319 320 319 319 319 319 318 318 317 317 316 315 314 313 312 312 311 311 312 313 313 313 312 312 313 313 313 312 312 312 311 311
315 315 319 320 320 321 321 322 323 323 322 323 324 321 320 321 319 319 322 323 321 320 320 321 322 325 327 329 327 328 330 330 330 330 328 328 328 327 326 326 326 326 326 325 326 327 327 327 327 327 326 325 322 320 319 319 319 319 320 320 319 319 318 317 316 315 313 313 312 312 311 310 310 310 310 311 311 311 312 312 312 311 310 310 311 312
314 316 320 320 320 320 320 321 323 322 321 323 322 319 321 323 322 320 322 325 322 319 320 321 322 325 327 328 327 328 329 330 330 330 328 328 328 327 327 326 326 326 325 325 327 328 327 327 327 326 326 324 323 322 320 320 319 319 319 318 318 317 317 316 315 313 312 311 310 310 309 308 308 308 308 308 307 309 310 310 310 310 309 310 312 313
318 317 320 322 320 320 320 321 322 322 322 322 319 320 323 323 322 321 319 321 319 318 320 321 322 323 324 327 328 328 328 329 329 329 329 327 327 327 327 326 326 326 325 325 326 327 327 326 326 325 324 323 322 321 319 318 317 316 315 314 314 314 313 313 312 310 309 308 307 307 306 305 304 304 304 304 303 305 307 306 307 308 307 310 313 313
321 317 318 322 321 319 320 321 321 321 322 322 321 322 322 320 320 321 319 318 318 318 319 321 322 322 322 326 329 328 329 329 328 329 329 328 327 327 327 326 326 326 325 325 325 326 326 325 324 323 322 320 319 318 317 316 314 313 312 312 312 312 310 309 309 308 308 307 307 307 306 306 305 304 304 303 301 303 304 305 305 306 306 309 312 312
323 319 317 320 321 320 320 321 319 320 321 322 322 323 322 320 320 321 320 319 318 317 318 320 321 321 322 327 329 328 329 330 327 328 329 328 327 326 326 326 325 325 325 324 324 324 324 323 322 321 319 318 317 316 315 314 314 313 312 311 311 311 311 310 308 307 308 307 307 306 306 305 304 303 302 301 300 301 302 303 304 304 305 308 311 310
324 321 317 319 321 319 319 321 321 321 321 321 320 320 322 322 321 322 321 320 319 317 318 318 319 322 325 328 329 328 330 329 328 328 329 328 327 327 326 325 324 324 323 323 322 322 321 321 320 318 317 316 315 314 314 314 313 313 312 312 311 310 310 310 309 308 307 305 303 301 300 300 300 299 299 299 298 299 299 299 300 302 305 307 307 308
324 320 317 318 319 318 320 323 322 322 322 322 322 321 322 322 320 319 319 321 320 318 319 318 318 323 327 327 328 329 330 330 330 329 328 328 327 326 325 324 324 323 322 322 321 321 320 319 318 317 316 315 314 314 313 313 312 312 311 311 310 309 309 308 308 307 304 301 299 298 298 298 298 298 298 298 297 297 297 297 299 302 304 305 306 307
327 324 318 318 320 320 322 322 322 322 322 323 323 323 323 323 321 318 318 321 320 319 320 319 318 325 329 328 330 331 330 331 329 328 328 327 326 325 325 324 323 322 321 320 320 319 318 317 316 315 315 314 314 313 313 312 311 311 310 309 309 307 306 305 305 303 301 299 298 298 298 297 297 297 297 297 297 297 297 298 300 303 304 305 305 305
328 327 319 318 321 322 322 323 322 324 323 322 323 324 324 323 323 322 321 322 321 319 321 318 318 326 330 330 331 331 330 330 329 328 328 326 325 324 323 322 322 320 320 319 318 318 317 316 315 314 314 313 313 312 312 311 311 310 308 308 307 305 303 303 302 301 300 298 298 297 297 297 297 297 297 297 297 297 297 297 300 302 304 305 305 305
325 323 320 317 319 320 320 321 322 322 322 324 325 325 325 324 325 325 324 324 321 319 321 318 318 327 330 329 331 331 330 330 328 328 327 326 325 324 323 322 321 320 319 319 318 317 316 315 314 313 313 312 311 311 311 310 310 309 308 306 304 302 301 301 301 300 299 297 297 297 297 297 298 298 298 298 297 297 297 297 298 300 303 304 305 305
324 324 322 318 317 318 318 319 321 322 323 324 326 325 324 324 324 325 323 321 319 321 322 318 320 328 331 329 329 330 329 329 328 328 327 326 325 323 323 322 321 320 319 318 317 316 315 314 313 313 312 311 311 310 310 309 308 307 307 305 303 302 302 300 300 299 298 297 297 297 298 298 298 298 298 298 298 297 297 297 297 298 300 302 304 305
327 327 328 324 322 320 321 322 325 327 324 322 324 325 324 325 327 326 322 320 321 323 321 320 325 330 330 329 328 328 328 328 329 328 326 325 324 323 323 321 320 319 318 318 317 316 314 313 312 312 311 310 310 309 308 308 307 306 305 305 304 303 302 299 298 298 297 297 297 297 298 298 298 298 298 298 298 298 297 297 297 296 298 300 302 304
327 324 328 331 327 324 324 325 326 328 326 323 323 324 325 325 328 326 323 323 324 320 318 324 331 331 330 330 329 327 328 329 329 328 326 326 324 323 322 320 319 318 317 317 316 315 314 313 312 311 310 309 309 308 307 307 306 305 305 305 304 303 302 299 298 298 297 297 298 298 298 298 298 298 298 298 298 297 297 297 297 296 297 298 298 300
327 323 327 331 328 326 325 324 325 327 327 325 324 325 325 326 327 327 325 326 326 321 322 328 330 329 330 330 329 328 329 329 329 328 326 325 324 322 321 319 318 317 317 316 315 314 313 312 310 309 308 308 307 307 307 306 306 305 305 305 304 302 301 299 298 297 298 297 297 298 298 298 298 298 297 297 297 297 297 297 297 297 296 296 296 297
328 324 328 330 328 328 326 323 325 326 325 325 325 325 326 326 327 327 327 327 326 325 328 329 329 329 330 329 329 330 329 329 328 327 326 325 323 322 321 319 318 317 316 315 314 313 312 311 309 308 307 307 307 307 307 306 306 305 304 304 302 301 300 298 297 297 298 298 298 298 298 298 297 297 297 297 297 297 297 297 297 297 296 296 296 296
325 324 329 330 326 326 326 324 325 325 324 325 325 325 325 325 326 327 328 328 327 327 329 329 328 330 330 330 330 329 329 329 328 327 325 324 323 322 320 319 318 316 315 314 313 312 311 310 309 308 308 307 307 307 307 306 306 304 303 302 300 299 298 297 297 297 297 298 298 297 297 297 297 297 296 296 296 296 296 296 296 297 296 296 296 296
326 325 328 328 323 323 325 325 324 325 324 324 324 324 324 325 326 327 328 329 328 329 330 328 327 329 330 331 330 329 329 328 328 327 325 324 323 322 321 319 317 316 315 314 313 311 310 309 308 308 307 307 307 306 305 305 304 302 300 299 298 297 297 297 297 297 297 297 297 297 297 297 296 296 296 296 296 296 296 297 296 296 296 296 297 296
327 325 326 324 320 322 327 326 325 325 322 322 325 326 325 327 327 326 327 328 329 329 328 326 326 329 331 331 329 328 329 328 328 327 325 324 323 322 320 319 317 316 314 313 312 310 309 309 308 307 307 306 306 305 304 303 301 300 299 298 298 297 297 297 297 297 297 297 297 296 296 296 297 297 297 297 296 296 296 296 296 296 296 296 297 297
327 325 324 323 320 322 327 327 325 323 322 323 326 328 328 328 326 326 328 328 328 328 327 326 328 330 331 330 329 329 329 328 327 327 325 324 323 321 320 318 316 315 313 312 310 309 308 307 307 306 306 306 304 304 303 301 299 299 299 298 298 297 297 297 297 297 297 296 296 296 297 297 297 297 297 297 297 297 297 296 296 297 297 297 297 298
327 325 324 324 321 322 325 324 322 322 323 325 327 327 327 326 326 327 328 327 327 327 327 327 328 330 330 330 330 329 328 328 326 326 325 323 322 321 319 317 315 314 312 311 309 308 307 306 306 305 304 304 303 302 302 300 299 299 300 298 298 298 297 297 297 296 296 296 296 297 297 297 298 298 298 298 298 298 298 298 299 299 299 299 299 300
326 324 323 323 322 322 322 321 322 323 325 327 327 326 325 325 326 327 326 325 327 327 327 328 329 330 330 329 329 328 327 326 324 323 323 322 321 319 317 316 315 313 311 310 308 307 306 305 303 302 301 301 301 301 300 299 299 299 299 298 298 297 297 297 296 296 296 296 297 297 297 298 298 298 299 299 299 299 299 300 300 300 300 300 301 301
327 325 322 322 322 322 320 318 321 323 323 327 329 327 326 327 328 327 324 325 327 327 327 328 329 330 330 329 328 326 324 324 323 321 320 320 319 318 317 315 313 311 310 309 306 305 303 302 301 300 299 298 299 298 298 298 299 299 298 298 298 297 296 296 296 296 296 296 297 297 298 298 298 299 299 299 299 300 300 300 300 300 300 300 300 301
326 326 324 321 320 321 319 318 320 320 319 323 329 329 328 329 329 327 324 324 328 328 328 329 329 329 329 327 325 324 324 325 324 322 319 318 318 317 315 313 311 310 309 307 306 304 302 301 301 300 298 297 297 297 297 298 298 298 298 297 296 296 296 296 296 296 296 296 297 298 298 299 299 299 299 299 299 300 300 299 299 299 299 299 300 300
325 326 325 321 320 320 319 318 319 318 319 324 331 331 329 327 328 327 322 322 327 329 328 329 329 328 327 326 325 325 325 325 325 323 319 317 317 315 313 311 310 308 308 307 306 304 302 301 301 299 298 297 297 297 297 297 297 297 297 296 296 296 296 296 296 296 296 296 297 298 298 298 299 299 299 299 299 299 299 299 299 299 298 299 299 300
324 324 323 321 320 320 319 319 318 319 322 328 330 328 327 327 328 326 320 320 327 329 327 329 328 328 327 326 325 327 326 325 324 323 318 316 315 313 312 310 309 308 308 307 305 304 302 302 301 299 297 297 297 297 297 297 297 297 296 296 296 296 296 296 296 296 296 296 297 297 298 299 299 299 299 299 299 299 299 298 298 298 298 298 299 299
324 323 321 321 320 320 320 319 318 320 325 329 328 326 326 327 326 323 320 322 327 329 328 328 328 327 327 326 326 327 326 325 324 321 317 315 314 312 310 310 309 308 308 306 305 303 302 302 300 298 297 297 297 297 297 297 297 296 296 295 295 295 295 295 295 295 295 296 297 297 298 299 299 299 299 299 299 299 298 298 298 298 298 298 298 299
322 322 321 320 320 319 320 319 318 320 326 328 327 326 326 325 323 322 324 327 328 328 328 328 328 327 326 326 327 327 325 323 321 319 316 315 313 311 310 309 308 308 307 306 305 303 302 300 298 297 298 297 297 297 297 297 296 296 296 295 295 295 295 295 295 295 295 296 297 297 298 298 298 299 299 299 299 299 298 298 298 298 297 298 298 298
322 320 318 319 321 321 320 320 318 320 326 328 326 325 326 325 324 324 325 327 328 328 328 328 327 326 326 326 326 325 322 320 319 317 315 314 312 311 309 309 309 308 307 306 304 302 301 299 298 297 297 297 297 297 297 296 296 296 295 295 295 295 295 295 295 295 295 296 296 298 299 299 298 298 299 299 299 298 298 298 298 298 297 297 298 298
322 319 317 319 322 320 318 319 321 324 327 327 326 326 326 325 324 326 326 325 328 329 328 327 327 326 325 327 325 322 321 319 317 316 314 313 311 310 309 309 308 308 307 305 303 301 300 299 298 297 297 297 297 297 296 296 296 295 295 295 294 294 295 295 294 295 296 297 297 298 299 299 299 298 298 299 299 299 299 298 298 298 297 297 297 297
323 323 321 322 323 322 321 324 327 328 328 326 327 329 328 324 321 324 325 324 326 328 327 327 327 325 325 326 324 321 320 318 316 316 314 312 311 310 309 309 308 307 306 305 303 301 299 298 298 297 297 297 297 296 296 296 295 295 295 295 294 295 294 294 294 295 296 297 298 298 298 298 299 298 298 298 299 299 298 298 298 297 297 297 297 297
324 324 322 322 324 324 325 327 327 327 327 327 327 327 327 324 320 321 325 325 324 325 327 326 326 325 325 324 322 321 319 318 316 315 314 312 310 309 309 308 308 307 305 303 302 300 299 298 298 298 297 297 297 296 296 295 295 295 295 295 294 294 294 294 294 295 296 297 298 298 298 298 298 298 298 298 298 298 298 298 298 297 296 297 297 298
323 322 320 322 323 322 322 327 328 327 327 329 327 325 324 323 320 319 325 327 324 323 325 326 325 324 323 323 322 321 319 317 316 314 312 311 310 309 309 308 307 306 305 303 302 300 299 299 299 298 297 297 297 296 296 295 295 295 295 294 294 294 295 294 294 295 295 297 298 298 298 298 298 298 298 298 298 298 297 297 297 297 296 296 297 298
324 321 320 322 323 322 323 328 329 326 326 326 327 326 325 322 320 319 321 322 320 320 323 323 323 323 323 322 322 321 319 317 316 315 312 311 310 309 309 309 307 306 304 302 301 300 300 301 300 299 297 297 297 296 295 295 295 295 295 294 294 294 294 294 294 294 295 296 297 297 298 298 298 298 298 298 298 298 297 297 297 296 296 296 297 298
322 320 321 323 323 323 324 326 326 324 324 324 324 325 326 325 321 319 320 319 318 319 320 320 321 322 322 321 321 321 318 316 316 315 313 311 310 309 309 308 307 305 304 302 301 301 301 301 300 298 297 297 297 296 295 295 295 295 294 294 294 294 294 294 294 294 294 295 296 296 297 298 298 298 298 298 298 298 297 296 296 295 296 296 297 297
319 320 322 323 321 320 322 326 326 323 323 325 325 324 325 324 322 320 320 319 318 318 319 320 321 321 321 321 321 320 318 316 315 315 313 312 311 310 309 308 306 305 303 302 301 301 300 299 298 298 297 297 296 296 295 295 295 295 294 294 294 294 294 294 294 294 294 294 295 295 296 297 297 297 298 298 298 298 297 297 296 295 295 296 297 298
319 322 323 322 321 322 324 327 327 324 322 326 326 324 323 323 321 320 320 320 319 318 319 320 321 320 320 320 320 319 319 317 315 315 314 312 311 310 309 308 307 304 302 301 301 300 299 298 298 298 297 297 296 296 295 295 294 294 294 294 294 294 294 294 294 293 294 294 294 294 295 296 296 297 297 297 297 297 297 297 297 296 296 296 297 297
Wind_Speed
10 6 4 4 6 6 2 6 11 12 16 14 12 10 10 10 10 11 10 7 8 10 12 12 13 14 12 11 12 14 14 15 14 14 13 12 11 11 11 11 11 11 10 8 7 6 5 5 6 6 6 6 6 7 7 7 8 9 9 9 10 11 11 12 12 12 12 12 12 13 13 13 13 12 12 12 12 12 12 14 15 15 16 16 15 15
8 5 6 5 8 9 6 9 14 15 14 11 11 11 10 10 10 11 10 7 7 8 11 13 14 13 12 11 12 14 14 14 14 14 14 13 12 12 12 12 11 10 9 8 8 7 6 5 5 6 6 6 6 7 8 7 8 9 10 10 10 11 11 12 12 13 13 13 14 13 14 14 13 13 13 14 13 14 15 16 16 16 17 17 16 16
7 2 7 7 8 10 8 11 14 15 13 9 8 9 8 9 10 11 10 9 8 7 9 14 13 10 11 12 12 14 13 14 14 14 14 14 13 13 12 12 11 10 10 9 9 8 7 7 6 6 7 7 7 8 8 8 9 9 10 10 10 10 11 12 13 14 14 14 15 15 15 16 15 15 16 16 15 15 17 17 16 16 16 16 16 16
4 4 6 7 9 10 10 12 13 12 9 7 7 6 8 9 9 9 8 8 8 8 11 15 10 6 9 11 11 13 14 13 14 14 14 14 14 14 13 12 11 10 10 9 9 8 8 8 7 7 7 8 8 8 9 9 9 10 10 11 11 11 12 14 15 15 15 16 16 17 17 17 17 17 17 18 18 17 17 18 17 17 17 17 16 16
7 6 4 9 10 11 12 12 11 8 4 6 9 6 7 10 9 8 9 10 9 9 12 12 8 5 7 9 9 11 13 13 14 14 14 14 13 13 12 12 11 10 10 9 9 8 8 8 8 8 9 9 8 9 9 10 10 10 11 12 13 13 14 15 16 16 16 16 16 17 17 16 17 17 17 18 20 20 20 20 19 19 19 18 18 18
7 5 6 11 11 12 12 10 9 8 4 6 11 9 8 10 10 12 13 10 6 5 7 5 4 5 7 9 8 8 10 11 12 13 13 13 13 12 12 12 11 11 10 9 9 8 8 8 8 9 9 9 8 9 10 11 12 12 12 13 13 14 15 15 16 16 16 16 16 17 17 17 18 18 19 20 21 22 22 22 22 21 21 20 20 20
5 4 7 10 11 13 12 8 8 7 4 4 9 11 11 11 11 13 12 6 2 5 5 3 2 6 6 7 8 7 9 10 11 12 13 13 13 12 12 12 11 11 10 10 9 9 8 9 9 10 10 10 10 11 11 12 13 13 13 14 14 14 15 16 17 17 17 17 18 19 20 19 20 20 21 22 22 22 23 23 24 24 23 23 22 21
5 7 8 8 9 11 9 7 8 6 4 5 9 10 12 13 11 10 6 2 4 5 6 3 2 5 6 6 6 6 8 10 10 11 12 12 13 12 12 12 12 12 11 11 11 10 10 10 11 11 11 12 12 13 14 14 14 14 15 15 15 16 17 18 19 20 21 21 22 23 23 23 23 24 24 25 25 25 25 26 26 26 26 26 25 24
4 7 8 9 9 7 4 7 12 10 6 7 11 9 9 10 8 6 3 4 3 2 4 4 1 2 6 6 5 5 7 9 9 9 10 12 12 12 12 12 12 13 12 13 12 12 12 12 13 13 13 14 15 16 16 16 16 16 17 17 18 19 20 20 21 22 23 23 23 24 26 26 26 26 25 26 27 28 29 30 30 31 31 30 29 27
3 2 4 7 6 2 5 9 11 7 6 11 12 8 7 7 5 3 2 3 2 1 5 4 3 1 6 5 4 5 6 7 8 7 9 11 12 11 12 11 12 12 13 13 13 13 13 14 14 15 16 17 18 18 18 18 18 18 18 18 19 20 21 21 21 22 23 23 25 26 28 28 27 26 26 27 28 29 29 31 32 32 32 32 32 31
7 4 2 1 0 4 8 9 5 4 12 16 12 8 7 6 2 2 0 1 3 1 5 3 3 3 3 4 3 4 5 5 5 6 8 10 11 11 11 11 12 13 13 14 14 15 15 16 16 17 18 18 19 19 19 19 19 18 18 18 19 20 20 21 21 22 24 25 26 27 28 28 26 26 26 27 27 27 26 27 28 28 29 29 31 31
8 5 3 2 2 7 10 8 4 10 18 15 9 8 6 4 3 3 3 3 3 2 4 3 1 3 1 5 5 5 5 4 5 7 8 9 11 11 11 11 12 13 14 14 15 15 15 16 16 17 18 18 18 19 19 19 18 18 18 18 19 19 20 21 22 23 24 25 26 26 26 26 26 25 24 22 23 24 23 24 25 25 25 26 28 29
7 5 6 5 4 8 11 9 5 9 14 10 7 7 5 4 3 3 2 1 2 3 4 3 1 2 4 7 6 6 5 4 5 7 8 10 11 11 11 11 12 13 14 14 14 14 14 14 15 15 16 17 17 18 18 18 17 17 17 17 18 18 19 20 21 22 23 24 24 24 24 24 23 23 22 21 21 22 22 23 23 25 25 26 28 27
5 5 7 6 5 8 9 7 7 7 9 8 7 6 4 2 1 2 1 1 2 4 5 2 1 2 6 6 5 6 6 6 7 7 9 10 11 11 11 12 12 13 13 13 13 13 13 13 13 14 15 15 16 16 16 16 16 17 17 17 16 17 18 19 20 21 22 22 22 22 22 22 21 21 20 20 21 21 22 22 22 24 25 26 28 27
3 5 5 3 4 8 6 2 4 7 8 8 6 6 5 1 1 2 2 2 3 4 5 3 1 1 5 5 6 8 7 7 7 8 10 11 11 11 12 12 12 12 12 11 12 12 12 12 12 13 13 14 14 14 14 15 15 16 17 16 16 17 17 18 19 19 20 20 21 21 22 22 22 22 21 21 23 23 23 23 23 24 25 25 27 24
2 4 5 2 2 7 5 1 2 5 7 6 4 5 4 2 2 1 3 4 4 1 3 3 1 3 4 6 8 9 9 8 8 10 11 11 12 11 11 11 10 10 10 10 11 11 10 10 11 11 12 12 13 13 13 13 14 15 15 15 15 16 16 17 18 19 20 21 23 24 25 26 25 24 25 24 25 25 24 23 24 25 25 25 24 22
2 5 6 3 4 5 4 2 3 3 2 5 5 4 1 3 2 1 2 3 1 3 1 3 2 5 6 6 9 10 9 9 10 11 11 12 12 11 10 10 9 9 9 9 10 9 9 9 10 11 11 11 12 12 12 12 13 13 14 14 15 16 16 17 19 21 23 24 26 27 27 28 27 27 28 28 28 28 25 24 24 24 24 24 22 21
1 4 5 2 4 4 2 5 5 2 3 2 4 5 5 2 1 2 1 1 3 3 1 3 4 5 6 5 8 11 11 10 10 11 12 12 12 10 9 9 9 9 9 9 9 9 9 9 10 11 11 11 11 12 12 13 13 14 15 16 16 18 19 19 21 23 25 26 28 29 30 31 31 30 30 31 31 29 27 25 24 24 24 22 21 21
2 3 5 2 3 6 6 6 6 3 2 3 2 7 4 2 3 3 3 3 4 3 1 4 3 4 5 4 9 13 12 12 11 11 12 12 11 10 10 9 9 9 9 9 9 8 9 9 10 11 11 11 12 12 13 13 14 15 16 18 18 19 21 23 24 25 26 28 29 29 31 31 31 31 30 30 31 29 27 26 25 24 24 22 22 22
2 2 4 4 3 5 7 6 5 6 4 1 2 5 4 4 2 1 2 3 4 4 1 2 3 3 2 5 12 14 13 13 12 11 11 12 12 10 10 10 9 10 10 10 10 10 10 10 10 10 10 11 12 12 13 13 14 15 16 18 19 19 20 23 26 27 26 27 28 28 29 29 29 28 28 28 28 27 26 26 25 24 24 23 23 23
3 2 3 5 5 5 5 3 2 2 4 5 5 5 4 3 1 2 2 2 4 4 3 2 2 3 4 4 11 14 13 13 13 12 12 12 12 11 11 10 10 11 11 11 11 10 10 10 10 10 10 11 11 12 12 13 14 14 15 17 19 20 19 20 23 24 25 27 29 29 29 28 27 27 27 27 27 26 25 25 24 23 23 23 23 23
2 3 3 5 6 5 2 4 4 4 2 2 3 4 4 4 3 4 4 3 3 4 3 4 3 4 5 2 7 13 13 14 15 14 14 14 14 13 12 11 11 12 12 12 11 10 10 10 9 9 10 10 11 12 12 12 14 15 16 16 19 21 20 20 21 23 26 28 28 28 28 27 27 27 27 27 26 26 26 25 24 23 23 24 24 24
1 3 4 3 3 2 5 5 2 2 3 3 3 2 3 4 5 5 3 1 2 2 1 3 3 3 5 3 6 12 14 15 16 16 15 15 15 14 14 12 12 12 12 12 12 11 10 9 9 9 10 10 11 12 12 13 14 16 18 17 18 21 22 21 22 24 26 27 27 27 27 26 26 27 27 28 28 27 26 25 23 23 23 24 24 25
1 3 4 3 3 4 5 4 3 2 2 4 3 2 3 3 3 4 4 2 2 3 2 4 3 3 5 6 8 12 15 15 15 16 17 16 15 15 14 13 13 13 12 12 11 11 10 9 9 9 10 11 11 12 13 14 14 16 19 19 19 22 23 23 24 25 26 27 27 27 27 27 27 28 29 29 29 28 27 25 23 23 23 23 24 25
3 2 3 4 4 5 5 4 4 3 4 4 2 2 3 3 2 2 2 2 4 4 3 6 2 4 6 7 10 13 15 16 16 16 17 17 16 16 14 13 13 13 12 12 11 11 10 9 9 10 10 11 11 12 13 14 14 16 18 20 21 22 23 23 24 25 26 27 27 27 27 28 29 29 30 30 30 29 28 25 23 23 22 22 23 24
2 2 3 6 5 5 5 4 3 3 4 3 2 4 4 4 5 3 2 4 4 2 3 6 2 5 7 9 12 14 14 14 16 16 16 16 16 16 14 13 13 13 12 11 11 10 10 9 10 10 11 11 12 13 13 14 15 15 17 19 21 21 22 24 25 25 26 26 26 26 27 29 29 30 30 31 30 30 28 26 25 23 21 22 23 23
1 1 2 5 4 2 2 3 3 1 4 6 5 6 5 4 4 4 4 4 2 0 4 5 3 8 11 12 13 15 14 14 16 17 16 16 16 16 15 13 13 12 11 11 11 10 9 9 10 10 11 12 12 13 13 14 15 16 17 18 19 20 23 26 26 24 25 25 26 27 28 29 29 30 30 31 30 30 29 28 26 24 22 21 21 22
2 2 1 2 3 3 4 4 4 2 3 5 6 7 6 5 5 6 5 3 2 3 4 2 7 9 11 14 15 16 15 14 16 18 16 16 16 15 15 14 13 12 11 11 11 10 9 9 10 11 12 12 13 13 14 14 14 15 16 17 18 19 22 25 25 24 24 25 26 27 29 29 29 30 30 30 30 29 29 28 27 26 23 22 21 21
4 2 2 0 1 3 3 2 2 0 1 3 5 7 6 6 6 6 5 2 3 6 4 3 5 6 9 15 16 16 17 17 18 18 17 16 16 16 15 15 13 12 11 11 11 10 9 9 9 11 12 13 13 13 13 13 13 15 15 15 17 20 21 22 24 24 24 25 26 28 29 29 30 30 29 29 29 28 28 27 26 26 24 22 21 20
4 1 3 3 2 3 2 1 2 2 4 4 5 5 5 5 4 3 3 1 4 5 3 1 5 4 5 12 15 16 18 18 17 17 17 17 17 16 16 14 13 12 12 12 11 9 9 9 9 10 11 12 12 11 11 12 13 14 15 16 18 20 21 22 23 24 24 26 27 28 29 29 29 29 29 29 29 28 28 27 26 26 24 23 21 20
3 1 4 4 4 3 2 2 3 5 5 5 5 5 5 5 4 2 2 1 3 4 2 2 5 4 4 10 15 18 19 19 18 18 17 17 17 16 15 14 13 12 12 11 10 9 8 8 8 9 9 10 10 10 10 11 12 14 16 18 20 21 22 22 23 24 25 27 28 28 29 29 28 29 28 28 28 28 27 27 26 25 24 23 22 21
3 2 4 5 6 3 3 2 4 5 5 6 6 7 7 5 3 2 2 2 3 3 2 4 5 4 6 12 16 18 20 19 19 18 17 16 16 16 15 14 13 12 12 11 10 8 8 7 7 7 8 8 8 9 11 11 13 16 18 20 21 22 22 23 23 24 26 27 28 28 28 28 28 28 28 28 28 27 27 26 26 25 24 23 22 21
3 3 4 5 6 4 5 2 3 5 6 6 5 6 6 4 2 2 2 3 4 3 2 2 1 3 11 15 15 17 20 20 19 19 17 16 16 15 14 14 13 12 12 11 9 8 7 7 6 7 7 7 8 9 11 13 15 17 19 20 21 22 23 23 23 25 26 27 27 27 27 27 27 27 27 27 27 26 26 25 24 24 23 22 21 20
4 5 4 4 4 4 6 4 4 6 7 3 2 2 3 3 3 3 2 3 5 4 1 2 3 6 13 16 16 17 20 20 18 17 17 17 17 15 14 14 13 13 12 11 10 8 6 6 6 6 7 7 9 10 12 14 17 17 17 19 21 22 22 22 23 24 25 25 26 26 26 27 27 27 27 27 27 26 25 25 24 23 22 21 21 20
5 4 3 2 3 2 5 5 7 6 4 2 3 2 1 0 2 3 3 3 5 6 3 1 2 7 12 15 17 18 18 17 16 15 15 16 16 16 16 15 14 14 13 11 9 7 7 6 6 7 7 8 10 11 12 14 16 16 16 18 20 21 21 21 22 23 24 24 25 26 26 27 27 27 27 27 27 26 26 25 25 23 21 21 22 21
5 5 3 2 2 2 4 7 6 2 2 5 4 2 3 2 3 4 5 6 7 7 5 4 5 9 12 14 16 17 17 17 15 13 13 14 16 17 17 16 15 14 13 11 9 8 7 6 6 7 9 9 10 11 12 14 14 15 16 18 19 19 20 20 21 22 23 24 25 25 26 27 27 26 27 27 26 25 24 23 23 21 20 20 22 22
4 5 5 3 2 3 5 7 4 2 2 5 4 5 7 5 4 4 5 4 8 9 8 7 9 12 14 15 17 19 19 18 13 10 11 14 15 16 16 16 16 14 13 10 8 7 7 7 9 9 10 10 10 11 12 13 14 15 17 17 17 18 19 20 20 21 22 23 24 25 26 26 26 26 26 26 24 22 21 19 20 20 19 20 21 21
4 3 4 5 3 3 5 6 5 5 5 3 3 7 9 5 3 3 4 3 9 13 12 11 13 15 16 17 18 19 17 12 8 8 13 15 16 17 17 17 16 14 11 9 8 8 8 9 10 9 9 10 10 11 13 14 14 15 16 17 17 17 18 19 20 21 22 22 23 24 25 25 25 25 24 23 21 19 18 18 18 19 19 20 20 21
4 3 4 4 4 4 6 6 5 6 3 3 5 8 10 6 5 4 5 3 9 16 16 14 16 18 19 19 20 18 13 8 6 11 18 19 18 19 19 18 16 13 11 9 8 7 8 9 9 8 8 8 10 11 12 14 15 15 15 16 16 17 18 18 19 20 21 22 22 23 24 24 23 21 20 20 18 17 17 17 17 18 19 20 20 21
5 4 5 6 5 6 7 6 5 4 1 5 6 8 10 7 5 5 5 0 8 15 17 17 18 19 20 21 21 17 12 6 6 17 25 24 21 20 19 18 16 14 12 10 8 7 8 9 8 7 7 7 9 11 12 14 15 15 15 15 15 16 17 18 19 20 21 22 21 22 23 22 20 18 18 17 17 17 17 16 16 18 19 19 20 20
5 4 4 6 6 6 7 7 5 2 3 6 8 11 12 8 4 5 2 4 10 16 16 17 19 20 21 22 20 15 9 3 9 22 29 27 24 22 19 17 16 14 12 9 7 7 8 7 5 5 6 7 9 10 12 13 14 13 14 14 15 16 17 17 18 20 21 22 21 22 22 20 18 18 16 15 15 16 16 16 16 17 18 19 19 20
5 4 4 5 6 5 5 6 6 3 3 8 11 12 11 7 3 2 4 7 10 16 16 17 19 20 22 23 19 13 10 9 13 23 29 28 26 25 22 19 17 15 12 8 6 7 6 5 4 4 5 7 8 10 12 12 12 12 13 14 15 16 16 17 19 20 22 22 21 20 19 18 19 18 15 14 15 16 16 16 16 16 19 20 20 21
4 4 5 5 5 4 4 6 7 4 4 14 15 10 7 5 2 6 9 8 9 14 16 17 18 19 22 21 15 14 16 15 17 24 28 27 27 26 23 20 16 13 10 8 6 6 5 4 3 3 5 7 8 10 11 11 11 11 12 14 15 15 16 17 19 21 21 21 21 18 15 15 16 15 13 14 16 17 17 16 16 17 22 23 21 20
4 5 5 4 6 5 5 6 3 2 9 22 16 5 9 8 4 7 8 7 8 13 15 16 18 19 21 19 16 17 20 20 22 26 27 26 27 26 22 19 15 12 11 8 7 6 5 3 3 4 5 6 8 10 10 10 10 11 12 13 14 15 16 17 19 21 21 19 18 16 13 12 14 14 13 15 16 17 17 16 16 19 24 25 23 20
2 1 3 2 5 5 4 1 3 5 11 22 11 1 7 11 7 7 8 8 9 13 14 15 18 20 20 20 20 20 21 22 25 26 27 27 27 25 22 19 16 13 11 8 7 6 4 2 3 4 5 6 8 9 9 9 9 11 12 13 14 14 16 17 19 21 21 17 14 13 13 12 12 13 14 14 15 16 17 17 16 18 22 26 26 23
1 1 3 3 3 4 5 4 2 1 9 18 11 3 8 11 9 10 9 7 8 12 14 16 20 22 21 21 21 20 21 23 25 25 26 28 27 24 22 19 16 13 11 9 7 6 4 3 4 4 5 7 8 8 8 8 9 11 12 12 13 14 15 17 19 20 20 18 14 11 12 12 11 12 13 13 14 15 16 16 16 17 21 26 28 26
3 4 4 3 2 2 4 5 5 4 8 14 13 9 9 12 12 12 9 6 7 11 13 15 20 24 25 23 22 22 22 24 26 26 27 27 27 25 23 20 17 14 11 9 7 5 4 5 5 5 5 6 7 7 7 8 9 10 11 11 12 14 15 17 18 18 19 19 17 14 12 11 12 12 12 13 13 14 15 15 15 15 19 26 28 28
3 4 5 6 6 5 3 3 4 4 7 11 14 12 11 14 15 13 11 9 9 11 13 15 19 24 25 23 23 25 25 25 25 27 28 28 27 26 23 20 17 15 12 10 7 6 7 7 6 5 5 6 6 6 7 8 8 9 10 11 12 13 15 16 17 17 18 18 18 17 15 13 12 12 12 13 13 13 14 15 15 14 16 22 27 28
2 4 4 4 6 8 7 4 6 4 6 11 17 17 13 14 17 15 12 11 11 12 13 15 17 21 24 24 25 26 26 25 25 27 28 29 28 26 23 20 17 15 12 10 8 8 9 9 7 5 5 5 5 6 7 8 8 9 10 10 11 13 14 15 16 17 18 17 17 18 18 16 14 12 12 13 13 12 13 16 16 15 15 19 23 26
4 5 4 4 6 6 5 5 9 6 4 8 18 22 20 19 20 19 14 11 11 12 14 17 18 19 21 24 26 27 27 26 26 27 27 28 28 26 23 20 18 15 13 11 10 9 9 8 7 5 4 4 5 6 7 7 7 9 9 10 11 12 14 15 16 16 17 17 16 17 18 17 16 15 14 13 13 12 14 17 18 18 18 18 21 23
7 6 4 5 7 5 5 2 6 8 5 1 8 18 24 26 24 21 17 14 13 13 16 19 21 21 22 23 25 26 27 26 27 27 27 27 27 25 22 19 17 15 14 12 10 10 9 8 7 5 4 4 5 6 6 6 6 8 9 9 11 12 13 14 15 15 15 16 16 17 18 18 17 17 17 16 16 15 14 15 16 18 20 20 20 21
Wind_Direction
131 133 168 187 136 140 141 111 123 110 102 114 126 114 105 106 103 106 108 102 94 87 85 86 85 83 79 75 72 70 70 69 71 75 76 77 77 78 79 81 82 82 85 88 88 86 85 84 85 84 73 61 52 46 43 34 29 26 21 17 11 6 6 6 5 3 4 2 358 358 358 356 353 349 347 344 337 332 329 329 333 331 331 333 330 330
168 166 149 156 127 126 127 113 112 105 106 121 128 119 116 114 108 110 114 117 109 94 93 89 81 80 82 81 74 69 66 62 63 66 69 71 72 74 75 75 75 77 79 81 81 82 82 79 76 74 66 59 52 43 38 32 27 23 19 14 10 7 4 2 2 2 2 358 357 356 351 351 347 341 339 335 331 329 328 327 326 323 323 323 322 320
202 145 101 120 121 125 131 126 120 114 120 133 132 122 112 112 114 113 115 118 113 102 98 89 79 73 76 79 74 70 68 65 62 61 62 63 63 64 65 67 70 71 72 70 70 72 75 78 76 69 60 55 52 43 36 31 27 24 18 12 8 5 0 358 357 358 357 355 354 352 349 348 344 340 339 337 333 329 324 323 322 319 317 316 315 311
160 88 94 134 140 142 142 137 130 122 131 136 122 112 114 130 130 118 127 125 110 107 103 94 87 85 85 85 80 73 72 71 68 67 66 64 61 59 57 59 61 62 63 63 64 64 66 70 69 64 57 53 50 42 37 32 28 24 15 10 9 2 357 356 357 358 357 356 355 352 352 351 347 345 344 342 337 331 327 325 324 320 316 315 313 307
83 75 125 155 154 154 147 142 133 122 138 121 111 118 132 139 129 115 130 125 115 119 114 100 89 89 85 83 85 80 74 69 67 68 69 67 67 65 62 61 60 58 58 58 60 60 61 62 59 57 53 50 46 39 35 29 23 20 12 11 11 5 2 1 1 1 359 359 358 357 357 355 352 351 348 344 341 341 341 338 335 331 326 323 315 308
80 80 162 164 162 159 148 147 146 137 153 123 120 141 139 127 125 129 138 138 135 131 124 119 87 82 81 74 78 82 78 72 66 67 69 67 66 65 63 63 63 63 61 58 58 58 59 58 54 53 51 47 41 34 30 27 24 23 19 17 15 11 9 7 6 5 5 7 7 6 7 4 2 1 358 355 351 351 350 348 347 346 342 337 327 318
91 122 183 175 166 165 150 153 170 156 153 120 127 143 133 126 140 150 159 163 115 92 118 169 110 96 100 79 74 77 80 78 71 68 68 67 65 62 62 62 61 63 65 64 61 58 57 57 55 53 50 46 42 39 37 37 35 31 28 25 22 21 20 19 19 19 21 25 25 23 24 21 17 14 12 9 6 2 0 358 358 357 355 351 346 339
121 150 184 179 170 177 161 158 175 153 114 123 135 143 139 138 150 161 169 123 89 104 116 127 72 91 101 91 91 89 83 81 75 70 69 69 68 65 65 65 65 63 65 66 63 61 60 59 59 57 54 53 52 52 51 47 45 41 39 38 37 38 37 35 34 35 37 38 37 34 33 31 27 23 21 18 16 14 13 10 8 7 6 3 0 356
134 162 174 175 178 188 153 148 164 151 117 129 139 145 149 143 148 166 147 93 128 170 104 92 319 77 96 111 125 108 86 80 73 70 71 71 71 69 69 69 72 70 68 69 68 66 65 63 63 62 60 62 61 60 58 56 54 51 50 49 47 47 45 42 41 41 42 41 39 35 32 31 28 25 23 20 18 16 14 12 10 9 8 6 4 2
97 124 158 182 190 162 99 134 167 172 126 131 140 149 155 140 146 190 137 102 190 273 68 74 301 7 94 116 130 104 82 76 77 76 73 73 73 71 72 73 76 78 75 74 73 72 71 69 69 70 68 68 66 64 62 61 60 56 51 48 47 47 46 44 42 40 38 35 32 30 28 27 26 23 20 17 15 13 12 10 8 6 5 3 2 360
97 94 107 250 29 95 108 124 149 143 131 140 147 153 160 148 160 213 130 249 233 102 77 68 323 322 96 101 86 80 75 68 81 87 79 79 79 75 76 77 77 79 79 78 77 77 76 74 74 73 71 68 65 63 60 59 59 56 51 46 45 46 43 40 36 31 29 27 26 25 23 21 20 19 16 15 14 12 10 8 6 5 3 2 0 358
111 118 114 68 91 127 128 126 122 130 139 151 156 154 167 162 182 210 192 245 276 75 90 95 358 291 87 95 88 92 95 80 72 81 83 83 83 79 76 77 78 79 80 79 79 77 75 73 71 69 67 65 62 59 57 56 55 53 48 42 40 40 37 32 27 23 22 22 22 23 22 20 18 18 17 15 13 10 8 5 4 2 0 358 357 356
98 89 108 109 143 155 140 130 134 145 154 167 160 163 188 168 188 245 195 243 337 90 112 109 210 270 76 89 107 111 105 95 77 75 86 88 88 86 82 80 81 81 80 79 77 74 71 68 65 63 62 61 59 56 53 51 49 46 41 36 34 33 31 28 24 21 20 21 22 22 21 20 19 17 17 15 12 9 6 3 1 360 358 356 354 352
113 108 133 138 153 174 168 146 151 165 181 186 165 180 222 159 173 286 30 27 16 104 117 96 261 177 112 105 120 117 107 111 104 92 94 97 95 93 90 88 85 82 81 78 76 73 70 67 64 63 61 58 56 52 49 47 43 38 35 33 33 32 29 25 23 22 22 23 24 22 22 22 20 19 17 14 11 8 5 3 360 357 355 352 351 348
150 125 144 158 147 177 198 195 170 173 187 193 176 196 242 305 338 322 356 13 35 93 121 136 224 163 134 129 122 121 124 130 128 116 111 109 106 101 98 95 89 86 83 79 78 76 72 69 66 64 60 57 53 49 46 43 38 34 31 30 31 31 28 23 22 24 25 24 23 20 19 19 19 16 14 11 9 6 4 1 357 355 352 348 348 346
189 110 104 67 137 188 210 310 214 194 187 186 194 213 236 328 21 32 14 17 19 61 133 162 175 68 105 126 128 137 141 145 144 133 127 121 115 112 106 101 94 89 84 79 80 79 75 72 67 63 59 55 50 46 42 38 33 30 28 27 30 32 29 24 24 26 25 22 18 16 14 13 13 11 9 7 5 2 0 358 354 352 350 348 347 347
210 115 105 105 145 191 232 208 208 252 190 163 202 220 93 36 32 124 81 67 305 277 130 171 176 117 133 146 146 155 151 152 157 144 135 128 123 121 113 107 101 92 84 79 82 84 79 70 64 62 58 55 53 47 43 38 34 31 31 32 34 36 34 30 27 24 20 17 12 9 7 5 4 2 0 358 357 356 355 353 352 351 351 351 351 351
236 131 123 131 132 140 213 188 174 272 304 207 197 162 107 63 263 252 284 187 251 282 130 192 208 161 168 158 154 167 162 160 163 148 139 137 132 126 116 112 105 97 89 83 85 85 80 70 66 65 62 58 56 53 50 47 41 37 37 40 39 36 32 28 23 17 11 7 3 0 358 357 357 356 355 353 353 353 353 353 354 354 355 355 354 352
243 155 132 111 108 128 164 184 164 167 276 327 110 144 156 250 218 197 256 269 273 300 176 185 201 197 200 162 164 175 168 164 163 152 149 146 138 129 121 117 110 104 98 88 83 82 80 77 73 71 67 61 57 54 52 46 41 37 36 36 33 27 21 15 11 8 5 3 2 1 359 358 358 357 357 356 356 357 357 358 359 359 360 359 356 354
227 216 148 145 130 147 178 201 188 164 171 164 127 164 211 275 298 215 248 282 290 303 308 187 186 200 194 152 168 174 165 164 163 156 154 145 137 132 125 122 116 108 103 94 89 88 87 85 80 74 68 63 57 53 49 43 40 38 34 30 26 23 17 9 6 6 6 6 4 2 0 359 360 0 1 1 1 3 4 4 4 4 5 3 359 358
213 247 170 145 151 186 188 202 267 168 161 186 195 197 201 207 273 268 230 247 283 293 311 296 238 133 97 125 165 164 160 164 163 154 149 141 133 129 124 123 118 110 106 101 99 96 92 87 81 74 68 62 56 51 46 43 40 36 32 26 21 20 18 13 10 9 6 3 360 360 1 3 5 6 7 6 5 7 8 11 13 11 9 5 2 1
223 228 193 157 176 207 123 45 339 329 322 243 220 211 203 196 216 243 228 195 245 282 309 308 307 104 106 127 158 155 157 162 159 151 145 139 133 128 126 124 119 114 111 108 105 101 96 90 81 73 66 59 52 46 42 39 36 31 29 25 18 16 16 14 11 7 3 1 2 5 8 9 10 10 9 9 10 11 13 16 17 13 10 5 3 3
309 243 209 167 160 131 67 58 15 341 318 285 276 261 228 215 231 260 276 171 206 256 289 281 284 102 115 139 146 151 157 157 153 148 143 138 134 132 130 126 121 118 115 112 108 103 97 91 81 69 60 53 46 42 38 35 31 24 20 20 15 12 11 9 7 5 5 7 9 11 12 12 13 12 12 13 14 15 16 16 14 11 8 3 2 3
243 244 206 172 127 113 100 103 112 70 262 240 234 239 249 250 262 297 320 329 264 246 245 264 257 125 129 150 150 151 153 151 150 147 142 138 136 135 134 130 125 121 117 114 109 103 95 85 75 61 51 47 41 38 35 31 26 19 13 13 12 9 6 6 7 8 10 12 12 12 13 14 15 14 15 15 15 15 15 14 11 8 5 1 1 1
207 242 213 201 180 165 168 173 172 177 214 236 207 176 240 259 236 269 286 269 268 252 258 282 286 111 131 156 156 154 152 150 149 146 142 140 141 140 136 133 129 123 120 116 108 101 92 78 68 56 48 43 37 34 31 27 24 19 14 12 10 8 7 9 12 12 12 12 12 13 14 15 15 14 15 14 13 14 14 12 10 6 2 0 360 360
214 248 231 235 224 209 211 200 200 188 178 198 172 162 207 220 210 239 259 248 258 205 223 270 292 113 137 161 163 160 158 153 148 146 146 146 145 142 140 137 131 126 123 117 108 101 91 77 66 55 46 42 36 30 26 22 19 18 16 14 11 10 11 14 15 12 11 12 12 13 14 14 13 12 12 11 10 11 11 11 10 6 1 359 358 357
226 204 241 279 286 277 315 38 32 324 185 183 173 166 183 196 205 242 263 273 311 76 240 253 145 139 158 170 171 169 169 161 152 150 150 148 146 142 141 139 133 130 126 117 109 99 90 78 63 48 39 37 33 27 23 20 18 18 17 16 13 11 12 13 14 12 11 12 12 12 12 11 10 9 8 7 7 7 8 9 8 7 3 358 355 353
237 205 189 315 347 6 6 46 54 326 222 188 172 167 171 176 197 234 263 321 359 285 276 138 140 165 173 173 176 174 173 168 158 157 155 150 148 144 142 139 134 133 129 119 110 101 90 76 56 39 31 30 27 23 22 21 21 20 18 16 13 11 11 11 12 12 11 11 10 10 9 6 5 5 4 2 2 2 3 5 5 6 5 0 354 350
268 239 147 263 19 44 25 63 92 341 194 168 170 167 167 178 200 234 261 291 263 272 320 89 169 202 180 176 180 175 174 171 161 158 155 151 150 146 144 144 140 138 132 119 109 98 83 64 43 28 24 25 24 23 24 23 22 20 19 16 12 10 9 9 11 12 10 10 8 6 4 2 0 0 359 359 359 359 360 2 3 4 5 3 357 351
279 212 139 188 168 94 65 117 162 182 167 153 162 168 173 184 204 243 258 260 259 271 335 355 226 226 175 178 177 170 171 167 157 153 154 153 152 150 150 149 144 139 130 116 105 91 73 56 40 29 27 26 26 27 27 27 24 20 19 15 10 9 9 9 11 10 8 7 5 3 0 358 358 358 356 356 357 358 359 1 2 2 4 4 1 356
260 181 147 194 198 134 116 162 176 192 188 168 162 167 176 179 179 193 179 179 241 249 279 262 231 210 164 168 166 165 167 162 155 155 156 156 155 154 153 149 143 136 123 111 101 88 73 59 46 41 38 34 33 33 30 28 23 18 17 14 10 9 9 9 10 8 6 5 3 0 359 358 358 357 356 356 357 359 0 1 2 2 3 5 4 1
221 169 153 211 225 166 132 169 179 188 206 200 184 181 185 187 176 151 152 186 234 225 181 215 228 193 159 161 162 165 167 165 159 158 158 158 158 158 154 148 143 133 121 112 105 95 84 69 56 52 50 44 42 37 30 26 20 16 14 12 10 8 8 9 8 6 4 3 0 359 359 359 359 358 358 358 359 0 2 2 2 3 4 6 6 4
196 181 174 214 228 170 135 157 176 189 220 224 196 180 179 178 171 162 165 194 223 226 194 227 290 121 149 161 163 167 172 170 164 161 160 159 160 160 155 149 143 133 124 117 112 103 91 80 67 58 57 52 45 36 27 21 17 15 13 11 8 7 8 8 6 4 3 2 0 1 1 2 3 3 4 5 4 4 4 3 4 6 6 7 7 5
192 211 200 210 235 174 140 152 189 214 234 236 90 122 153 158 188 208 208 192 200 220 247 1 38 129 155 164 166 170 174 171 166 163 162 161 161 159 154 149 142 134 127 122 116 109 96 88 76 64 65 55 40 33 24 18 17 15 13 9 7 7 8 8 5 3 4 3 3 4 5 8 10 12 13 13 11 10 8 6 7 7 7 8 7 4
188 210 202 206 243 174 140 169 208 228 238 110 88 92 133 176 249 260 268 225 203 209 208 102 118 156 165 169 167 168 169 165 159 156 158 161 160 155 150 147 141 136 131 126 122 114 99 89 78 67 64 50 36 31 23 16 16 16 12 9 8 8 8 7 6 6 6 7 8 8 10 13 15 18 19 17 14 12 9 6 5 3 3 4 3 360
188 187 175 183 230 176 171 197 212 234 101 124 126 128 142 177 225 242 252 222 195 198 194 159 135 147 156 159 157 154 151 145 137 136 148 156 155 153 150 146 143 139 135 133 127 115 103 87 71 60 53 43 34 27 19 16 16 15 12 11 10 8 7 8 10 10 10 11 12 12 13 15 17 19 20 18 15 11 6 3 1 359 359 360 358 358
210 195 181 184 224 227 220 214 215 279 207 175 169 167 176 191 195 219 263 218 175 182 182 152 138 144 146 143 143 143 141 139 133 130 144 151 151 152 150 147 145 140 139 138 124 101 84 66 57 48 39 34 28 21 18 18 18 15 12 12 10 8 10 13 13 14 14 14 15 16 16 16 16 18 18 15 12 8 3 0 0 359 0 1 359 358
225 225 207 202 206 233 247 233 224 250 244 197 143 156 170 175 146 177 269 233 169 174 174 157 150 152 147 143 146 146 147 156 164 157 156 155 150 149 149 147 146 145 143 134 109 88 69 59 56 46 34 27 22 21 20 18 19 17 12 9 10 11 15 17 17 17 17 17 18 19 19 17 17 17 14 10 8 5 2 1 1 1 2 3 1 0
211 238 236 223 193 199 241 246 232 240 243 99 107 142 157 153 136 175 258 243 163 168 171 162 158 159 156 153 153 153 163 189 190 163 163 161 154 153 152 147 146 146 141 125 106 88 68 61 59 45 32 24 21 22 19 17 18 17 10 8 12 17 19 20 20 20 20 20 21 22 21 19 18 15 11 7 6 5 3 2 2 2 4 6 5 3
196 209 221 224 209 202 225 244 246 243 174 106 120 144 152 152 164 210 253 206 147 165 172 165 161 164 162 158 158 166 187 212 170 159 164 162 156 156 157 156 154 149 140 131 114 84 69 69 64 44 29 25 26 24 20 19 18 12 9 13 18 21 23 23 23 23 23 24 25 25 25 21 17 13 10 8 7 7 5 4 4 4 5 7 6 5
193 202 215 229 230 213 217 239 256 249 117 120 137 147 148 153 196 233 254 92 140 165 171 167 165 165 163 163 169 179 184 134 128 154 163 162 157 158 159 160 156 147 140 135 109 84 84 83 69 43 31 31 30 25 23 23 18 11 13 19 22 25 26 25 25 24 25 27 29 29 27 23 18 16 14 10 9 10 8 7 7 7 8 9 8 7
190 191 205 229 236 223 217 239 251 247 125 128 133 140 153 171 218 210 99 98 143 163 167 168 166 163 165 171 177 172 145 116 130 153 160 162 161 161 160 159 156 150 147 137 106 95 95 78 54 45 42 37 32 29 29 26 18 15 20 24 25 28 27 26 26 26 26 29 32 31 25 19 18 19 15 11 11 11 11 11 11 9 12 14 13 11
188 195 211 213 215 228 231 227 245 278 141 143 136 137 185 215 46 100 116 111 140 161 165 168 168 167 170 172 165 145 137 136 143 151 156 161 165 166 165 164 162 156 148 135 117 109 102 82 66 59 51 41 33 33 33 27 20 21 27 28 27 28 28 28 28 28 26 27 32 33 23 15 17 17 14 13 14 11 11 13 13 13 15 16 14 12
180 205 234 207 184 212 231 210 226 2 149 162 157 157 203 198 92 101 133 126 143 165 167 168 171 173 171 164 149 140 144 146 149 154 159 164 168 169 167 166 164 156 147 143 135 123 112 100 88 73 59 46 38 37 35 28 24 27 30 29 28 29 30 31 31 30 28 26 29 31 25 17 18 20 18 17 15 12 12 13 13 14 16 17 16 13
192 224 302 283 190 221 268 222 71 57 157 177 180 92 172 174 137 122 139 130 149 171 172 171 174 172 168 163 154 149 152 154 156 162 168 169 169 169 167 164 163 159 155 153 144 129 123 119 99 84 67 51 43 41 37 30 30 32 32 30 31 32 34 34 33 34 33 29 27 26 22 20 20 22 23 22 17 14 13 12 12 12 13 16 18 15
11 43 314 305 195 228 271 241 177 104 175 187 196 163 162 173 155 137 136 131 153 172 174 174 174 169 166 166 160 154 157 160 162 166 171 171 168 167 167 165 164 166 165 157 148 141 137 126 108 92 70 56 51 45 38 35 35 35 33 32 33 35 37 37 36 36 37 35 33 26 20 22 24 21 20 23 22 18 14 12 12 10 10 15 18 18
166 176 232 257 191 215 246 207 190 203 190 192 204 203 186 184 171 150 143 143 152 166 173 176 176 175 174 172 168 166 165 167 168 170 172 172 169 169 171 171 169 170 167 158 155 152 139 129 121 103 76 63 57 48 42 42 40 36 34 34 35 36 38 39 39 39 39 39 39 36 28 26 30 28 22 21 22 21 18 16 14 10 10 15 17 18
144 168 216 233 220 229 244 166 161 208 209 204 212 210 197 193 183 164 153 153 152 161 173 178 181 183 178 173 175 179 175 173 176 176 174 173 173 172 174 176 173 170 166 164 164 152 139 140 137 117 89 71 64 55 49 48 43 37 35 35 36 38 39 40 41 40 41 40 40 40 37 30 29 31 27 23 23 23 21 21 20 15 13 15 18 18
112 175 211 232 228 240 250 201 170 208 234 220 216 212 201 196 190 177 161 156 157 165 172 176 184 188 182 177 183 187 179 174 180 182 178 177 177 175 176 178 176 173 171 169 167 154 149 153 146 126 104 83 71 61 56 53 45 39 38 36 37 39 40 42 43 41 41 40 38 39 40 35 30 32 31 26 26 23 18 19 24 27 22 18 20 22
207 220 215 216 225 244 255 188 178 210 254 218 213 214 206 197 194 189 177 167 168 173 175 175 178 182 182 185 193 193 184 176 179 183 181 180 179 179 179 179 176 174 174 172 168 162 161 160 148 130 112 93 79 66 61 58 48 42 41 38 38 40 41 44 46 42 40 40 37 37 41 39 37 39 38 33 31 27 15 11 17 26 30 26 25 27
224 250 243 245 258 291 352 66 201 240 285 223 203 215 212 206 202 198 192 188 184 181 181 181 177 173 177 186 193 195 190 184 182 184 183 182 181 182 182 181 179 178 177 174 171 169 164 158 149 136 117 99 86 71 65 62 51 45 43 39 39 41 43 46 48 45 42 41 38 38 41 41 40 41 40 37 37 36 27 17 12 15 24 30 30 31